Regional Weather Roundup
Issued by NWS

Home | Current Version | Previous Version | Text Only | Print | Product List | Glossary On
Versions: 1 2 3 4 5 6 7 8 9 10 11 12 13 14 15 16 17 18 19 20 21 22 23 24 25 26 27 28 29 30 31 32 33 34 35 36 37 38 39 40 41 42 43 44 45 46 47 48 49 50
000
ASUS43 KTOP 150308
RWRKS

WEATHER ROUNDUP FOR KANSAS
NATIONAL WEATHER SERVICE GOODLAND KS
900 PM CST THU DEC 14 2017

NOTE:  "FAIR" INDICATES FEW OR NO CLOUDS BELOW 12,000 FEET WITH NO
SIGNIFICANT WEATHER AND/OR OBSTRUCTIONS TO VISIBILITY.

KSZ001>006-013>018-027>032-041>047-150400-
NORTHWEST KANSAS

CITY           SKY/WX    TMP DP  RH WIND       PRES   REMARKS
GOODLAND       CLOUDY    30  21  69 NW10      30.23R WCI  21
HAYS           CLOUDY    32  25  75 N8        30.22
HILL CITY      CLOUDY    35  28  75 NW5       30.23R
RUSSELL        CLEAR     28  26  92 NW9       30.20R
$$

KSZ061>065-074>080-084>089-150400-
SOUTHWEST KANSAS

CITY           SKY/WX    TMP DP  RH WIND       PRES   REMARKS
DODGE CITY     CLOUDY    32  25  75 NW10      30.23R WCI  24
ELKHART        CLEAR     32  31  95 NW9       30.26S
GARDEN CITY    CLEAR     27  22  81 NW9       30.24R
GREAT BEND     CLEAR     30  26  85 NW8       30.21R
LIBERAL        CLEAR     27  22  81 NW10      30.27R WCI  17
PRATT          CLEAR     32  25  74 NW9       30.21R
$$

KSZ066>073-081>083-090>101-150400-
SOUTHEAST KANSAS

CITY           SKY/WX    TMP DP  RH WIND       PRES   REMARKS
CHANUTE        CLOUDY    41  28  60 W6        30.13R
COFFEYVILLE    CLOUDY    39  28  64 S5        30.15R
HUTCHINSON     PTCLDY    39  32  76 NW16      30.17S WCI  30
MEDICINE LODGE   N/A     35  28  75 NW6       30.20R
NEWTON         CLOUDY    39  34  82 NW16      30.16R WCI  30
PARSONS        CLOUDY    38  29  70 CALM      30.15R
WICHITA INTL   MOCLDY    43  33  68 NW16G23   30.16R
WICHITA JABRA  CLOUDY    42  34  73 NW13      30.15R
WICHITA MCCONL CLOUDY    43  32  65 NW13      30.15R
WINFIELD       CLOUDY    45  32  60 NW10      30.16R
$$

KSZ007>012-019>026-033>040-048>060-102>105-150400-
NORTHEAST KANSAS

CITY           SKY/WX    TMP DP  RH WIND       PRES   REMARKS
CONCORDIA      CLOUDY    37  33  85 N10       30.17S WCI  30
EMPORIA        CLOUDY    41  29  62 NW7       30.13R
LAWRENCE       CLOUDY    37  28  70 W3        30.13R
MANHATTAN      CLOUDY    40  33  76 VRB6      30.16R
MARYSVILLE     CLOUDY    34  32  93 NW6       30.15R
OLATHE IND     CLOUDY    37  26  64 S3        30.12S
OLATHE EXE     CLOUDY    35  27  72 SW3       30.11S
SALINA         CLOUDY    41  35  79 NW15      30.18R
TOPEKA BILLARD CLOUDY    41  33  73 NW8       30.14R
TOPEKA FORBES  CLOUDY    41  34  76 NW12      30.13R
$$




USA.gov is the U.S. government's official web portal to all federal, state and local government web resources and services.